www.pogodaiklimat.ru

Погода и климат >> Архив погоды >> Индонезия >> Нангапинох


ПОГОДА в Нангапинохе

  • Прогноз погоды в Нангапинохе
  • Монитор погоды в Нангапинохе

АРХИВ ПОГОДЫ в Нангапинохе

Время (UTC), дата Ветер
(напр.,м/с)
 
Видим.   Явления Облачность Т
(С)
Тd
(С)
f
(%)
Тe
(С)
Тes
(С)
Комфортность P
(гПа)
Po
(гПа)
Тmin
(С)
Tmax
(С)
R
(мм)
R24
(мм)
S
(см)
15 17.04 штиль 0 2000 м мгла 9/6
[Cb cap As op]
+27.3 +25.2 88 +39 +39 очень
душно
1010.6 1005.9
00 18.04 Ю 1 4000 м дымка 5/3 300 м
[Cu hum Ac As Ci fib]
+25.6 +24.8 95 +36 +38 очень
душно
1011.2 1006.6 +25.0
03 18.04 штиль 0 10 км 8/6 300 м
[Cu med, cong Ac As Ci fib]
+30.6 +24.8 71 +43 +51 опасность
перегрева
1011.3 1006.7
06 18.04 ЮВ 3 10 км в посл. час дождь 8/6 300 м
[Cb cap As op Ci fib]
+32.0 +25.2 67 +46 +51 опасность
перегрева
1008.3 1003.6 0.8
09 18.04 Ю 2 10 км 8/5 300 м
[Cb cap As trans Ci fib]
+30.5 +25.7 76 +45 +47 опасность
перегрева
1006.2 1001.6
12 18.04 Ю 1 5000 м зарница 8/6 300 м
[Cb cap As trans Ci fib]
+28.2 +26.2 89 +43 +43 опасность
перегрева
1008.6 1003.9 +34.2
15 18.04 штиль 0 2000 м мгла 9/6 300 м
[Cb cap As op Ci fib]
+26.8 +24.1 85 +37 +37 очень
душно
1010.7 1006.1
00 19.04 штиль 0 2000 м дымка 9/6
[Cb cap As op]
+25.2 +24.9 98 +36 +36 очень
душно
1010.4 1005.7 +25.4 7 7
03 19.04 В 1 1000 м мгла 10/6
[Cb cap As op]
+25.2 +24.6 96 +35 +37 очень
душно
1011.6 1006.9
06 19.04 СЗ 1 7000 м 9/6
[Cb cap As op]
+30.0 +24.5 72 +42 +46 опасность
перегрева
1008.2 1003.5
09 19.04 СЗ 3 10 км 5/5 330 м
[Cu med, cong As trans Ci fib]
+31.6 +24.5 66 +44 +45 опасность
перегрева
1005.6 1001.0
12 19.04 штиль 0 7000 м 4/3 330 м
[Sc As trans Ci fib]
+28.4 +25.5 84 +42 +42 опасность
перегрева
1007.1 1002.5 +32.0
15 19.04 СЗ 1 6000 м 5/3 330 м
[Sc As trans Ci fib]
+26.2 +24.7 91 +37 +37 очень
душно
1010.0 1005.4
00 20.04 штиль 0 1000 м дымка 10/6 300 м
[Cu Sc As op]
+24.1 +23.9 99 +33 +33 очень
душно
1010.1 1005.5 +24.0
03 20.04 ЮЗ 2 6000 м 9/6 300 м
[Cu Sc Ac As Ci fib]
+28.8 +25.0 80 +42 +46 опасность
перегрева
1011.0 1006.3
06 20.04 З 3 9000 м осадки на расстоянии 9/8 300 м
[Cb calv As op Ci fib]
+33.2 +24.5 60 +46 +48 опасность
перегрева
1007.0 1002.4
09 20.04 Ю 2 4000 м слаб. дождь 10/6 300 м
[Cb cap As op]
+24.7 +24.2 97 +34 +34 очень
душно
1006.6 1001.8 4
12 20.04 штиль 0 4000 м дымка {дождь} 10/6
[Cb cap As op]
+25.2 +24.6 96 +35 +35 очень
душно
1008.5 1003.7 +33.4 0.0
15 20.04 В 2 2000 м дымка 9/6 300 м
[Cu med, cong As op]
+24.8 +24.2 96 +34 +34 очень
душно
1010.7 1006.0
00 21.04 штиль 0 7000 м 5/3 300 м
[Cu hum Ac As Ci fib]
+24.1 +23.3 95 +32 +35 очень
душно
1009.4 1004.7 +23.2 4
03 21.04 С 1 10 км 6/5 300 м
[Cu hum As trans Ci fib]
+29.6 +24.1 72 +41 +50 опасность
перегрева
1009.4 1004.7
06 21.04 СВ 1 10 км 6/6 300 м
[Cu med, cong Ci fib]
+33.2 +23.3 56 +44 +52 опасность
перегрева
1006.0 1001.4
09 21.04 СЗ 3 10 км 6/5 300 м
[Cb calv As trans Ci fib]
+34.5 +24.2 55 +47 +48 опасность
перегрева
1004.2 999.6
12 21.04 В 2 7000 м 9/6 300 м
[Cb cap As op Ci fib]
+29.0 +25.3 80 +42 +42 опасность
перегрева
1006.0 1001.3 +35.2
15 21.04 Ю 5 1000 м мгла 10/6 300 м
[Cb cap As op]
+26.8 +24.4 87 +38 +38 очень
душно
1007.8 1003.2
00 22.04 штиль 0 5000 м дымка 9/6 300 м
[Cu med, cong Ac As]
+24.6 +24.2 98 +34 +35 очень
душно
1008.3 1003.6 +23.3 5
03 22.04 В 2 10 км 8/6 300 м
[Cu med, cong As op Ci fib]
+30.6 +24.8 71 +43 +49 опасность
перегрева
1008.4 1003.8
06 22.04 ЮЗ 2 10 км осадки на расстоянии 8/6 300 м
[Cb calv As op Ci fib]
+33.6 +23.8 57 +45 +51 опасность
перегрева
1005.6 1000.9
09 22.04 СВ 2 10 км 9/6 300 м
[Cb cap As op]
+33.4 +25.4 63 +48 +48 опасность
перегрева
1004.5 999.9
12 22.04 Ю 2 5000 м мгла 10/6
[Cb cap As op]
+27.8 +24.9 84 +40 +40 очень
душно
1007.2 1002.5 +34.6
15 22.04 штиль 0 2000 м мгла 10/6
[Cb cap As op]
+26.5 +25.2 93 +38 +38 очень
душно
1008.1 1003.5
00 23.04 ЮЗ 2 1000 м дымка 10/6
[Cb cap As op]
+25.6 +25.1 97 +37 +37 очень
душно
1008.9 1004.3 +24.8 40 40
03 23.04 штиль 0 3000 м мгла 10/6
[Cb cap As op]
+27.5 +25.1 87 +40 +42 очень
душно
1009.5 1004.8
06 23.04 ЮЗ 2 10 км 9/6 300 м
[Cb calv As op Ci fib]
+31.4 +24.5 67 +44 +49 опасность
перегрева
1006.2 1001.5
09 23.04 С 1 10 км 8/4 300 м
[Cb calv As trans Ci fib]
+33.0 +24.7 62 +46 +48 опасность
перегрева
1004.8 1000.2
12 23.04 Ю 1 6000 м {дождь} 8/5 300 м
[Cb calv As op Ci fib]
+27.8 +25.5 87 +41 +41 опасность
перегрева
1007.8 1003.1 +33.8 0.9
15 23.04 ЮЗ 1 4000 м мгла 9/5 300 м
[Cb calv As op Ci fib]
+26.6 +25.5 94 +39 +39 очень
душно
1009.4 1004.7
00 24.04 штиль 0 4000 м дымка 10/6 300 м
[Cu Sc As op]
+25.8 +25.3 97 +37 +38 очень
душно
1009.7 1005.0 +25.5 0.9
03 24.04 штиль 0 2000 м слаб. дождь 10/6
[Cb cap As op]
+25.7 +25.2 97 +37 +39 очень
душно
1011.3 1006.6 8
06 24.04 Ю 2 10 км {дождь} 9/6 300 м
[Cb cap As op Ci fib]
+30.4 +25.2 74 +44 +49 опасность
перегрева
1007.6 1003.0 7
09 24.04 ЮЗ 2 10 км 8/5 300 м
[Cb calv Ac As Ci fib]
+29.4 +25.6 80 +43 +45 опасность
перегрева
1006.4 1001.8

 

Местоположение метеостанции Нангапинох (Индонезия): широта -0.35 долгота 111.78 высота над уровнем моря 37 м.

В архиве по умолчанию представлена погода в Нангапинохе за последнюю неделю. Архивные данные за месяц целиком и за предыдущие месяцы, начиная с января 2011 года, Вы можете получить, выбрав интересующий диапазон дат из раскрывающегося списка и нажав кнопку "Ввод!".


*Определитесь, кто Вы:
робот инопланетянин человек

Внимание! Время в таблицах - всемирное. Для получения местного времени необходимо прибавить поправку, которая равна 7 ч.

Смотрите также архив погоды в соседних городах и на ближайших метеорологических станциях:

Погода в Синтанге (Индонезия) (59 км)
Погода на Путусиббау (Индонезия) (185 км)
Погода в Паоанкарая (Индонезия) (257 км)
Погода в Кучинге (Малайзия) (260 км)
Погода в Пангкалан-Буне (Индонезия) (262 км)
Погода в Кетапанге (Индонезия) (262 км)
Погода в Понтианаке (Индонезия) (266 км)
Погода в Сибу (Малайзия) (298 км)
Погода в Муаратевехе (Индонезия) (353 км)
Погода в Парохе (Индонезия) (363 км)

Пояснения к столбцам:

Ветер - указаны скорость ветра в м/с - средняя за 10 мин, порывы в срок и между сроками (в фигурных скобках) и направление, откуда дует ветер: С - северный, СВ - северо-восточный, В - восточный, ЮВ - юго-восточный, Ю - южный, ЮЗ - юго-западный, З - западный, СЗ - северо-западный.
Видимость - горизонтальная дальность видимости в метрах или километрах. При видимости от 1 до 10 км при отсутствии осадков обычно наблюдается дымка, при ухудшении видимости до 1 км и менее - туман. В сухую погоду видимость может ухудшаться дымом, пылью или мглою.
Явления - указаны атмосферные явления, наблюдавшиеся в срок или в последний час перед сроком; фигурными скобками обозначены явления, наблюдавшиеся между сроками (за 1-3 часа до срока); квадратными скобками обозначены град или гололедные отложения с указанием их диаметра в мм.
Облачность - указаны через наклонную черту общая и нижняя облачность в баллах и высота нижней границы облаков в метрах; квадратными скобками обозначены формы облаков: Ci - перистые, Cs - перисто-слоистые, Cc - перисто-кучевые, Ac - высококучевые, As - высокослоистые, Sc - слоисто-кучевые, Ns - слоисто-дождевые, Cu - кучевые, Cb - кучево-дождевые. Подробнее классификацию облаков см. в Атласе облаков (PDF).
T - Температура воздуха - температура, измеренная на высоте 2 м над землей.
Td - Температура точки росы - температура, при понижении до которой содержащийся в воздухе водяной пар достигнет насыщения.
f - Относительная влажность воздуха - влажноcть воздуха, измеренная на высоте 2 м над землей.
Te - Эффективная температура - температура, которую ощущает одетый по сезону человек в тени. Характеристика душности погоды. При расчете учитывается влияние влажности воздуха и скорости ветра на теплоощущения человека.
Tes - Эффективная температура на солнце - температура, которую ощущает человек, с поправкой на солнечный нагрев. Характеристика знойности погоды. Зависит от высоты солнца над горизонтом, облачности и скорости ветра. Ночью, в пасмурную погоду, а также при ветре 12 м/с и более поправка равна нулю.
P - Атмосферное давление - приведенное к уровню моря атмосферное давление.
Po - Атмосферное давление - измеренное на уровне метеостанции атмосферное давление.
Tmin - Минимальная температура - минимум температуры воздуха на высоте 2 м над землей.
Tmax - Максимальная температура - максимум температуры воздуха на высоте 2 м над землей.
R - Количество осадков - Количество выпавших осадков за период времени, мм. При наведении курсора мыши на число - период времени, за который выпало указанное количество осадков.
R24 - Количество осадков - Количество выпавших осадков за 24 часа, мм.
S - Снежный покров - Высота снежного покрова, см. При наведении курсора мыши на число - состояние снежного покрова и степень покрытия местности в баллах.